K42C Weather Reports


Display with metric or nautical units.
time (UTC)temp
F
wind
direction
speed
MPH
gust
MPH
rain 1hr
in
rain 24hr
in
rain mn
in
humidity
%
barometer
mb
20260906083534 57 84 0.0 0.0 0.00 0.01 0.00 100 982.3
20260906083457 57 84 0.0 0.0 0.00 0.01 0.00 100 982.3
20260906082227 57 84 0.0 0.0 0.00 0.01 0.00 100 981.9
20260906082140 57 84 0.0 0.0 0.00 0.01 0.00 100 981.9
20260906080911 57 84 0.0 0.0 0.00 0.01 0.00 100 981.9
20260906080820 57 84 0.0 0.0 0.00 0.01 0.00 100 981.9
20260906080143 57 84 0.0 0.0 0.00 0.01 0.00 100 981.8
20260906075504 57 84 0.0 0.0 0.00 0.01 0.00 100 981.8
20260906074827 57 84 0.0 0.0 0.00 0.01 0.00 100 982.0
20260906073509 58 84 0.0 0.0 0.00 0.01 0.00 100 982.0
20260906072928 58 84 0.0 0.0 0.00 0.01 0.00 100 981.9
20260906072828 58 84 0.0 0.0 0.00 0.01 0.00 100 981.9
20260906072224 58 84 0.0 0.0 0.00 0.01 0.00 100 981.8
20260906072152 58 84 0.0 0.0 0.00 0.01 0.00 100 981.8
20260906071544 58 84 0.0 0.0 0.00 0.01 0.00 100 981.9
20260906071511 58 84 0.0 0.0 0.00 0.01 0.00 100 981.9
20260906070154 59 84 0.0 0.0 0.00 0.01 0.00 100 981.8
20260906064950 59 84 0.0 0.0 0.00 0.01 0.00 100 981.8
20260906064836 59 84 0.0 0.0 0.00 0.01 0.00 100 981.8
20260906064233 59 84 0.0 0.0 0.00 0.01 0.00 100 981.7
20260906064159 59 84 0.0 0.0 0.00 0.01 0.00 100 981.7
20260906063518 59 84 0.0 0.0 0.00 0.01 0.00 100 981.7
20260906062840 59 84 0.0 0.0 0.00 0.01 0.00 100 981.9
20260906062201 60 84 0.0 0.0 0.00 0.01 0.00 100 982.0
20260906060843 60 84 0.0 0.0 0.00 0.01 0.00 100 982.0
20260906060206 61 84 0.0 0.0 0.00 0.01 0.00 100 981.9
20260906055625 61 84 0.0 0.0 0.00 0.01 0.00 100 981.8
20260906055525 61 84 0.0 0.0 0.00 0.01 0.00 100 981.8
20260906054208 62 84 0.0 0.0 0.00 0.01 0.00 100 981.6
20260906053619 62 84 0.0 0.0 0.00 0.01 0.00 100 981.5
20260906053530 62 84 0.0 0.0 0.00 0.01 0.00 100 981.5
20260906052850 62 84 0.0 0.0 0.00 0.01 0.00 100 981.6
20260906051624 62 84 0.0 0.0 0.00 0.01 0.00 99 981.5
20260906051532 62 84 0.0 0.0 0.00 0.01 0.00 99 981.5
20260906050854 63 84 0.0 0.0 0.00 0.01 0.00 98 981.6
20260906050215 63 84 0.0 0.0 0.00 0.01 0.00 97 981.6
20260906045626 63 84 0.0 0.0 0.00 0.01 0.00 97 981.5
20260906045537 63 84 0.0 0.0 0.00 0.01 0.00 97 981.5
20260906044857 64 84 0.0 0.0 0.00 0.01 0.00 96 981.3
20260906044220 64 84 0.0 0.0 0.00 0.01 0.00 96 981.2
20260906042319 64 84 0.0 0.0 0.00 0.01 0.00 96 981.2
20260906042222 64 84 0.0 0.0 0.00 0.01 0.00 96 981.2
20260906041626 65 84 0.0 0.0 0.00 0.01 0.00 95 981.1
20260906041545 65 84 0.0 0.0 0.00 0.01 0.00 95 981.1
20260906040904 65 107 2.0 0.0 0.00 0.01 0.00 95 981.0
20260906040227 65 79 2.0 0.0 0.00 0.01 0.00 95 980.9
20260906035546 65 93 1.0 0.0 0.00 0.44 0.01 95 980.7
20260906034909 65 86 0.0 4.0 0.00 0.44 0.01 95 980.7
20260906034228 65 91 4.0 0.0 0.00 0.44 0.01 95 980.7
20260906033551 66 104 6.0 3.0 0.00 0.44 0.01 95 980.6
20260906032911 66 110 0.0 0.0 0.00 0.44 0.01 96 980.6
20260906032234 66 60 5.0 4.0 0.00 0.44 0.01 96 980.4
20260906031652 66 27 4.0 0.0 0.00 0.44 0.01 96 980.4
20260906031553 66 27 4.0 0.0 0.00 0.44 0.01 96 980.4
20260906030916 66 93 2.0 0.0 0.00 0.44 0.01 97 980.4
20260906030235 67 73 0.0 0.0 0.00 0.44 0.01 98 980.3
20260906025635 67 73 0.0 0.0 0.00 0.44 0.01 98 980.3
20260906025558 67 73 0.0 0.0 0.00 0.44 0.01 98 980.3
20260906024917 67 73 0.0 0.0 0.00 0.44 0.01 98 980.3
20260906024240 67 73 0.0 0.0 0.00 0.44 0.01 99 980.3
20260906023600 67 73 0.0 0.0 0.00 0.44 0.01 100 980.2
20260906022921 67 73 0.0 0.0 0.00 0.44 0.01 100 980.2
20260906022242 67 73 0.0 0.0 0.00 0.44 0.01 100 980.2
20260906021604 66 73 0.0 0.0 0.00 0.44 0.01 100 980.1
20260906020924 66 73 0.0 0.0 0.00 0.44 0.01 100 980.1
20260906015607 66 73 0.0 0.0 0.00 0.44 0.01 100 979.9
20260906014929 66 73 0.0 0.0 0.00 0.44 0.01 100 979.7
20260906013612 67 73 0.0 0.0 0.00 0.44 0.01 100 979.6
20260906012931 67 73 0.0 0.0 0.00 0.44 0.01 100 979.3
20260906012254 67 73 0.0 0.0 0.00 0.44 0.01 100 979.2
20260906011612 68 73 0.0 0.0 0.00 0.44 0.01 100 979.1
20260906010936 68 73 0.0 0.0 0.00 0.44 0.01 100 978.9
20260906010255 68 73 0.0 0.0 0.00 0.44 0.01 100 979.0
20260906005617 69 73 0.0 0.0 0.00 0.44 0.01 100 978.8
20260906004936 69 73 0.0 0.0 0.00 0.44 0.01 99 978.8
20260906004300 70 73 0.0 0.0 0.00 0.44 0.01 98 978.7
20260906003620 71 73 0.0 0.0 0.00 0.44 0.01 96 978.6
20260906002305 72 73 0.0 0.0 0.00 0.44 0.01 92 978.5
20260906001625 73 73 0.0 0.0 0.00 0.44 0.01 90 978.5
20260906000944 74 73 0.0 0.0 0.00 0.44 0.01 87 978.4
20260906000411 74 73 0.0 0.0 0.00 0.44 0.01 84 978.4
20260906000307 74 73 0.0 0.0 0.00 0.44 0.01 84 978.4
20260905235626 74 73 0.0 0.0 0.00 0.44 0.01 83 978.4
20260905234949 75 73 0.0 0.0 0.00 0.44 0.01 82 978.3
20260905234308 75 73 0.0 0.0 0.00 0.44 0.01 81 978.4
20260905233631 75 73 0.0 0.0 0.00 0.44 0.01 80 978.3
20260905232951 75 73 0.0 0.0 0.00 0.44 0.01 79 978.3
20260905232314 75 73 0.0 0.0 0.00 0.44 0.01 78 978.3
20260905231633 75 73 0.0 0.0 0.00 0.44 0.01 78 978.3
20260905230956 76 73 0.0 0.0 0.00 0.44 0.01 78 978.4
20260905230315 76 73 0.0 0.0 0.00 0.44 0.01 78 978.3
20260905225638 76 73 0.0 0.0 0.00 0.44 0.01 78 978.2
20260905224957 76 73 0.0 0.0 0.00 0.44 0.01 76 978.2
20260905224320 76 73 0.0 0.0 0.00 0.44 0.01 75 978.1
20260905223002 76 25 0.0 0.0 0.00 0.44 0.01 76 977.9
20260905222322 76 38 0.0 0.0 0.00 0.44 0.01 76 977.8
20260905221828 76 45 4.0 3.0 0.00 0.44 0.01 76 977.8
20260905221645 76 45 4.0 3.0 0.00 0.44 0.01 76 977.8
20260905220327 77 42 4.0 5.0 0.00 0.44 0.01 74 977.8
20260905215646 77 98 2.0 4.0 0.00 0.44 0.01 74 977.7
20260905215009 77 114 3.0 3.0 0.00 0.44 0.01 74 977.6
20260905214329 77 69 5.0 6.0 0.00 0.44 0.01 73 977.5
20260905213651 77 82 5.0 3.0 0.00 0.44 0.01 73 977.6
20260905213011 77 42 6.0 6.0 0.00 0.44 0.01 73 977.4
20260905212416 77 6 6.0 6.0 0.00 0.44 0.01 72 977.4
20260905212334 77 6 6.0 6.0 0.00 0.44 0.01 72 977.4
20260905211140 77 51 7.0 6.0 0.00 0.44 0.01 74 977.4
20260905211016 77 51 7.0 6.0 0.00 0.44 0.01 74 977.4
20260905210335 77 27 9.0 8.0 0.00 0.44 0.01 73 977.4
20260905205658 77 354 4.0 5.0 0.00 0.44 0.01 75 977.3
20260905205018 77 62 5.0 3.0 0.00 0.44 0.01 74 977.2
20260905204341 77 39 6.0 6.0 0.00 0.44 0.01 74 977.3
20260905203700 78 31 6.0 7.0 0.00 0.44 0.01 73 977.2
20260905203108 78 17 8.0 7.0 0.00 0.44 0.01 73 977.3
20260905203023 78 17 8.0 7.0 0.00 0.44 0.01 73 977.3
20260905202342 77 38 6.0 7.0 0.00 0.44 0.01 73 977.3
20260905201705 77 32 7.0 6.0 0.00 0.44 0.01 73 977.4
20260905201025 78 68 2.0 4.0 0.00 0.44 0.01 73 977.3
20260905200347 78 84 6.0 3.0 0.00 0.44 0.01 73 977.5
20260905195744 77 49 7.0 6.0 0.00 0.44 0.01 73 977.5
20260905195707 77 49 7.0 6.0 0.00 0.44 0.01 73 977.5
20260905195148 77 113 5.0 6.0 0.00 0.44 0.01 74 977.5
20260905195030 77 113 5.0 6.0 0.00 0.44 0.01 74 977.5
20260905194441 77 37 6.0 6.0 0.00 0.44 0.01 74 977.5
20260905194349 77 37 6.0 6.0 0.00 0.44 0.01 74 977.5
20260905193712 77 8 8.0 8.0 0.00 0.44 0.01 74 977.5
20260905192355 77 48 5.0 6.0 0.00 0.44 0.01 76 977.5
20260905191714 76 62 7.0 6.0 0.00 0.44 0.01 75 977.5
20260905191037 77 55 9.0 6.0 0.00 0.44 0.01 75 977.6
20260905190356 77 42 6.0 6.0 0.00 0.44 0.01 75 977.7
20260905185719 77 65 6.0 5.0 0.00 0.44 0.01 76 977.9
20260905185039 76 125 4.0 2.0 0.00 0.44 0.01 78 978.1
20260905184402 76 87 2.0 3.0 0.00 0.44 0.01 81 978.1
20260905183721 76 49 5.0 6.0 0.00 0.44 0.01 80 978.2
20260905183044 75 108 1.0 5.0 0.00 0.44 0.01 82 978.4
20260905182404 75 35 7.0 3.0 0.00 0.44 0.01 81 978.3
20260905181727 75 107 6.0 0.0 0.00 0.44 0.01 81 978.3
20260905181046 75 31 7.0 6.0 0.00 0.44 0.01 82 978.4
20260905180409 74 41 7.0 5.0 0.00 0.44 0.01 86 978.3
20260905175729 74 60 5.0 6.0 0.00 0.44 0.01 86 978.4
20260905175052 75 44 4.0 6.0 0.00 0.44 0.01 87 978.3
20260905174411 75 84 5.0 3.0 0.00 0.44 0.01 85 978.4
20260905173734 74 84 6.0 4.0 0.00 0.44 0.01 87 978.3
20260905173054 73 143 7.0 6.0 0.00 0.44 0.01 90 978.5
20260905172417 73 30 6.0 0.0 0.00 0.44 0.01 90 978.6
20260905171736 72 138 6.0 6.0 0.00 0.44 0.01 91 978.8
20260905171059 72 55 7.0 7.0 0.00 0.44 0.01 92 978.8
20260905170419 71 23 6.0 6.0 0.00 0.44 0.01 92 978.7
20260905165742 72 66 7.0 6.0 0.00 0.44 0.01 92 978.9
20260905165101 71 58 7.0 7.0 0.00 0.44 0.01 93 979.0
20260905164424 71 115 5.0 8.0 0.00 0.44 0.01 93 978.9
20260905163744 71 24 2.0 8.0 0.00 0.44 0.01 94 979.0
20260905163107 70 11 8.0 7.0 0.00 0.44 0.01 94 978.9
20260905162427 70 63 5.0 6.0 0.00 0.44 0.01 95 978.9
20260905161750 70 101 4.0 5.0 0.00 0.44 0.01 95 978.9
20260905161109 70 25 5.0 6.0 0.00 0.44 0.01 96 978.9
20260905160432 70 53 8.0 7.0 0.00 0.44 0.01 96 978.9
20260905155752 70 48 8.0 6.0 0.00 0.44 0.01 96 978.9
20260905155115 69 145 5.0 5.0 0.00 0.44 0.01 97 978.8
20260905154434 69 56 7.0 7.0 0.00 0.44 0.01 98 978.9
20260905153757 69 84 7.0 8.0 0.00 0.44 0.01 99 978.9
20260905153117 69 86 6.0 8.0 0.00 0.44 0.01 100 979.0
20260905152440 68 79 7.0 8.0 0.00 0.44 0.01 100 979.0
20260905151800 68 83 7.0 5.0 0.00 0.44 0.01 100 979.0
20260905151123 68 53 5.0 3.0 0.00 0.44 0.01 100 978.9
20260905150442 68 108 7.0 5.0 0.00 0.44 0.01 100 978.9
20260905145805 68 38 7.0 7.0 0.01 0.44 0.01 100 979.0
20260905145125 68 59 8.0 5.0 0.01 0.44 0.01 100 979.0
20260905144448 68 105 6.0 9.0 0.01 0.44 0.01 100 978.7
20260905143807 68 114 6.0 8.0 0.01 0.44 0.01 100 978.7
20260905143130 68 83 8.0 8.0 0.01 0.44 0.01 100 978.7
20260905142450 68 49 6.0 7.0 0.01 0.44 0.01 100 978.6
20260905141813 68 86 5.0 8.0 0.01 0.44 0.01 100 978.5
20260905141133 67 51 5.0 5.0 0.01 0.44 0.01 100 978.5
20260905140456 67 34 4.0 5.0 0.01 0.44 0.01 100 978.5
20260905135815 67 91 5.0 8.0 0.00 0.44 0.01 100 978.5
20260905135138 67 90 6.0 5.0 0.00 0.44 0.01 100 978.6
20260905133225 67 117 7.0 9.0 0.00 0.44 0.01 100 978.5
20260905133140 67 117 7.0 9.0 0.00 0.44 0.01 100 978.5
20260905132503 67 63 6.0 8.0 0.00 0.44 0.01 100 978.5
20260905131823 67 63 7.0 7.0 0.00 0.44 0.01 100 978.5
20260905130506 67 84 8.0 6.0 0.00 0.44 0.00 100 978.3
20260905125829 67 59 7.0 4.0 0.00 0.44 0.00 100 978.3
20260905124511 67 69 6.0 7.0 0.00 0.44 0.00 100 978.3
20260905124113 67 100 7.0 7.0 0.00 0.44 0.00 100 978.2
20260905123831 67 100 7.0 7.0 0.00 0.44 0.00 100 978.2
20260905123154 67 87 5.0 6.0 0.00 0.44 0.00 100 978.1
20260905122513 67 113 7.0 4.0 0.00 0.44 0.00 100 978.0
20260905121836 67 77 6.0 7.0 0.00 0.44 0.00 100 977.9
20260905121156 67 70 6.0 4.0 0.00 0.44 0.00 100 977.9
20260905120519 67 113 7.0 5.0 0.00 0.44 0.00 100 977.8
20260905115838 67 89 7.0 5.0 0.00 0.44 0.00 100 977.7
20260905115244 67 69 5.0 6.0 0.00 0.44 0.00 100 977.7
20260905115201 67 69 5.0 6.0 0.00 0.44 0.00 100 977.7
20260905113844 67 55 7.0 6.0 0.00 0.44 0.00 100 977.7
20260905112731 67 66 4.0 7.0 0.00 0.44 0.00 100 977.5
20260905112527 67 66 4.0 7.0 0.00 0.44 0.00 100 977.5
20260905111846 67 66 7.0 6.0 0.00 0.44 0.00 99 977.4
20260905110529 67 72 6.0 5.0 0.00 0.44 0.00 100 977.4
20260905105852 67 83 5.0 7.0 0.00 0.44 0.00 100 977.4
20260905105211 67 89 7.0 5.0 0.00 0.44 0.00 100 977.4
20260905104534 67 359 5.0 9.0 0.00 0.44 0.00 100 977.5
20260905103854 67 59 6.0 6.0 0.00 0.44 0.00 100 977.5
20260905102637 67 28 7.0 6.0 0.00 0.44 0.00 100 977.4
20260905102536 67 28 7.0 6.0 0.00 0.44 0.00 100 977.4
20260905101859 67 101 2.0 5.0 0.00 0.44 0.00 100 977.0
20260905101219 67 121 4.0 5.0 0.00 0.44 0.00 100 977.2
20260905100542 67 94 7.0 6.0 0.00 0.44 0.00 100 977.3
20260905094544 68 89 6.0 9.0 0.00 0.44 0.00 100 977.2
20260905094129 68 86 9.0 8.0 0.00 0.44 0.00 100 977.2
20260905093907 68 86 9.0 8.0 0.00 0.44 0.00 100 977.2
20260905093227 68 62 7.0 7.0 0.00 0.44 0.00 100 977.1
20260905092550 68 34 7.0 7.0 0.00 0.44 0.00 100 977.1
20260905091909 68 101 0.0 9.0 0.00 0.44 0.00 100 977.1
20260905091232 68 46 7.0 4.0 0.00 0.44 0.00 100 976.8
20260905090640 68 52 5.0 6.0 0.00 0.44 0.00 100 976.8
20260905090552 68 52 5.0 6.0 0.00 0.44 0.00 100 976.8
20260905085915 68 104 0.0 4.0 0.00 0.44 0.00 100 977.0
20260905085234 68 68 5.0 6.0 0.00 0.44 0.00 100 976.8
20260905084557 68 21 0.0 0.0 0.00 0.44 0.00 100 976.8